Regional Weather Roundup
Issued by NWS

Home | Current Version | Previous Version | Text Only | Print | Product List | Glossary On
Versions: 1 2 3 4 5 6 7 8 9 10 11 12 13 14 15 16 17 18 19 20 21 22 23 24 25 26 27 28 29 30 31 32 33 34 35 36 37 38 39 40 41 42 43 44 45 46 47 48 49 50
000
ASUS45 KABQ 010610
RWRNM
WEATHER ROUNDUP FOR NEW MEXICO
NATIONAL WEATHER SERVICE ALBUQUERQUE NM
1200 AM MDT WED OCT 01 2014

NOTE: "FAIR" MEANS FEW OR NO CLOUDS BELOW 12,000 FEET AGL WITH NO
       SIGNIFICANT WEATHER OR OBSTRUCTIONS TO VISION.

      THIS PRODUCT IS RELEASED AS TWO VERSIONS.  ONE VERSION NEAR
      THE TOP OF THE HOUR CONTAINING PRELIMINARY DATA FROM ALBUQUERQUE
      AND OTHER STATIONS.  A FINAL VERSION WITH ADDITIONAL DATA IS
      ISSUED ABOUT 10 MINUTES AFTER THE HOUR.

NMZ501-503-504-510>518-010700-
NORTHWEST PLATEAU/NORTHCENTRAL MOUNTAINS

CITY           SKY/WX    TMP DP  RH WIND       PRES   REMARKS
FARMINGTON     CLEAR     47  41  80 NE5       29.96F
6HR MIN TEMP:  47; 6HR MAX TEMP:  66;

LOS ALAMOS     CLEAR     52  32  46 N5        30.05F
SANTA FE       CLEAR     52  31  44 N10       29.99S
6HR MIN TEMP:  51; 6HR MAX TEMP:  68;

TAOS           CLEAR     43  30  61 NE5       30.05F
ANGEL FIRE     FAIR      42  31  65 SE10      30.09R

$$
NMZ402-403-502-505>509-010700-
WESTCENTRAL MOUNTAINS/SOUTHWEST MOUNTAINS

CITY           SKY/WX    TMP DP  RH WIND       PRES   REMARKS
GALLUP         CLEAR     48  39  71 E3        30.01F
6HR MIN TEMP:  44; 6HR MAX TEMP:  66;

GRANTS         CLEAR     46  34  61 NW8       30.04S
SILVER CITY    CLEAR     54  37  54 NW8       30.00F

$$
NMZ407-409-411-412-010700-
SOUTHERN DESERTS

CITY           SKY/WX    TMP DP  RH WIND       PRES   REMARKS
LORDSBURG      FAIR      59  36  41 MISG      29.93S
DEMING         CLEAR     56  39  53 CALM      29.93R
6HR MIN TEMP:  56; 6HR MAX TEMP:  79;

LAS CRUCES     CLEAR     60  33  36 W5        29.93S
HOLLOMAN AFB   PTCLDY    64  39  39 SE7       29.87F
ALAMOGORDO     PTCLDY    57  43  58 S8        29.89F
T OR C         CLEAR     65  35  33 NW10      29.92S
6HR MIN TEMP:  65; 6HR MAX TEMP:  80;


$$
NMZ519>523-010700-
CENTRAL VALLEYS/CENTRAL HIGHLANDS

CITY           SKY/WX    TMP DP  RH WIND       PRES   REMARKS
ALBUQUERQUE    CLEAR     60  33  36 CALM      29.96S
6HR MIN TEMP:  58; 6HR MAX TEMP:  75;

DOUBLE EAGLE   CLEAR     52  33  47 NW7       29.99S
MORIARTY ARPT  FAIR      42  31  65 NE5       30.01R
6HR MIN TEMP:  41; 6HR MAX TEMP:  69;

CLINES CORNERS CLEAR     46  32  58 W8        30.01F
6HR MIN TEMP:  45; 6HR MAX TEMP:  64;

BELEN          NOT AVBL
SOCORRO        FAIR      63  34  34 NE7       29.93S
6HR MIN TEMP:  60; 6HR MAX TEMP:  76;


$$
NMZ524>526-539-540-010700-
SOUTHCENTRAL MOUNTAINS

CITY           SKY/WX    TMP DP  RH WIND       PRES   REMARKS
RUIDOSO        NOT AVBL

$$
NMZ527>531-010700-
NORTHEAST HIGHLANDS/NORTHEAST PLAINS

CITY           SKY/WX    TMP DP  RH WIND       PRES   REMARKS
LAS VEGAS      PTCLDY    53  29  39 VRB6      30.00S
6HR MIN TEMP:  50; 6HR MAX TEMP:  66;

RATON          CLEAR     48  37  65 N6        29.94S
6HR MIN TEMP:  47; 6HR MAX TEMP:  69;

CLAYTON        CLEAR     56  39  53 W15       29.82S
6HR MIN TEMP:  56; 6HR MAX TEMP:  71;


$$
NMZ532>537-010700-
EASTCENTRAL PLAINS

CITY           SKY/WX    TMP DP  RH WIND       PRES   REMARKS
TUCUMCARI      CLEAR     62  41  46 W10       29.82R
6HR MIN TEMP:  59; 6HR MAX TEMP:  79;

CANNON AFB     CLEAR     64  46  52 W9        29.85F
6HR MIN TEMP:  62; 6HR MAX TEMP:  76;

CLOVIS AIRPORT   N/A     57  46  67 W9        29.87F

$$
NMZ028-029-538-010700-
SOUTHEAST PLAINS

CITY           SKY/WX    TMP DP  RH WIND       PRES   REMARKS
ROSWELL        CLEAR     64  46  52 W9        29.83S
6HR MIN TEMP:  61; 6HR MAX TEMP:  82;

CARLSBAD       CLEAR     64  54  69 W7        29.82S
6HR MIN TEMP:  63; 6HR MAX TEMP:  84;

HOBBS          CLEAR     64  54  68 SW6       29.85F


$$


USA.gov is the U.S. government's official web portal to all federal, state and local government web resources and services.